Location: Unspecified
(0.0000°N, 0.0000°E)
Time: 17:25:14
(UTC+00:00)

Vanguard 3 - Pass Details

Date: 11 February 2023
Orbit: 509 x 3249 km, 33.3° (Epoch: 20 March)

Event Time Altitude Azimuth Distance (km) Brightness Sun altitude
Rises 22:25:49 0° 318° (NW) 5,464 11.5 -59.8°
Enters shadow 22:28:11 - 322° (NW) 4,967 11.2 -60.3°
Reaches altitude 10° 22:29:06 10° 324° (NW) 4,784 - -60.5°
Maximum altitude 22:43:38 53° 38° (NE) 3,456 - -63.6°
Drops below altitude 10° 23:02:41 10° 109° (ESE) 6,153 - -67.5°
Sets 23:07:31 0° 113° (ESE) 7,065 - -68.4°
Exits shadow 23:07:34 - 113° (ESE) 7,074 11.8 -68.4°
